• In Deutschland
  • Länderverzeichnis
  • Für 7 Tage
  • Wassertemperatur
  • Satellitenkarten
  • Wetterkarte
  • Widgets
  • user-avatar
    Anmelden

    Stündliche Wetter Changchun

    Heute, 24 April, Dienstag

    Zeit Temperatur Niederschläge Wind Luftdruck Luftfeuchtigkeit
    00:00 +13°C° 0 mm 2 m/S 743 mmHg 31%
    01:00 +13°C° 0 mm 2 m/S 743 mmHg 32%
    02:00 +12°C° 0 mm 2 m/S 743 mmHg 33%
    03:00 +12°C° 0 mm 2 m/S 743 mmHg 34%
    04:00 +10°C° 0 mm 3 m/S 743 mmHg 35%
    05:00 +9°C° 0 mm 3 m/S 743 mmHg 36%
    06:00 +11°C° 0 mm 3 m/S 743 mmHg 32%
    07:00 +13°C° 0 mm 3 m/S 744 mmHg 27%
    08:00 +16°C° 0 mm 3 m/S 744 mmHg 24%
    09:00 +18°C° 0 mm 4 m/S 743 mmHg 21%
    10:00 +19°C° 0 mm 4 m/S 743 mmHg 19%
    11:00 +21°C° 0 mm 4 m/S 743 mmHg 17%
    12:00 +21°C° 0 mm 4 m/S 743 mmHg 16%
    13:00 +22°C° 0 mm 4 m/S 742 mmHg 15%
    14:00 +24°C° 0 mm 3 m/S 741 mmHg 13%
    15:00 +24°C° 0 mm 3 m/S 741 mmHg 14%
    16:00 +22°C° 0 mm 3 m/S 741 mmHg 14%
    17:00 +23°C° 0 mm 2 m/S 741 mmHg 14%
    18:00 +21°C° 0 mm 2 m/S 741 mmHg 16%
    19:00 +20°C° 0 mm 1 m/S 741 mmHg 18%
    20:00 +16°C° 0 mm 0 m/S 741 mmHg 20%
    21:00 +18°C° 0 mm 1 m/S 741 mmHg 21%
    22:00 +16°C° 0 mm 1 m/S 741 mmHg 22%
    23:00 +16°C° 0 mm 1 m/S 741 mmHg 23%

    Morgen, 25 April, Mittwoch

    Zeit Temperatur Niederschläge Wind Luftdruck Luftfeuchtigkeit
    00:00 +15°C° 0 mm 1 m/S 741 mmHg 24%
    01:00 +14°C° 0 mm 2 m/S 740 mmHg 25%
    02:00 +14°C° 0 mm 2 m/S 740 mmHg 26%
    03:00 +13°C° 0 mm 2 m/S 740 mmHg 28%
    04:00 +13°C° 0 mm 2 m/S 740 mmHg 29%
    05:00 +12°C° 0 mm 2 m/S 740 mmHg 30%
    06:00 +13°C° 0 mm 3 m/S 740 mmHg 28%
    07:00 +17°C° 0 mm 3 m/S 740 mmHg 26%
    08:00 +19°C° 0 mm 4 m/S 740 mmHg 24%
    09:00 +20°C° 0 mm 4 m/S 740 mmHg 22%
    10:00 +22°C° 0 mm 4 m/S 740 mmHg 20%
    11:00 +25°C° 0 mm 5 m/S 739 mmHg 17%
    12:00 +26°C° 0 mm 5 m/S 739 mmHg 17%
    13:00 +27°C° 0 mm 5 m/S 739 mmHg 16%
    14:00 +27°C° 0 mm 4 m/S 738 mmHg 16%
    15:00 +27°C° 0 mm 5 m/S 738 mmHg 16%
    16:00 +26°C° 0 mm 5 m/S 737 mmHg 17%
    17:00 +26°C° 0 mm 5 m/S 737 mmHg 18%
    18:00 +23°C° 0 mm 5 m/S 737 mmHg 20%
    19:00 +21°C° 0 mm 4 m/S 736 mmHg 23%
    20:00 +20°C° 0 mm 4 m/S 736 mmHg 25%
    21:00 +19°C° 0 mm 4 m/S 736 mmHg 26%
    22:00 +19°C° 0 mm 4 m/S 736 mmHg 27%
    23:00 +17°C° 0 mm 5 m/S 736 mmHg 28%

    übermorgen, 26 April, Donnerstag

    Zeit Temperatur Niederschläge Wind Luftdruck Luftfeuchtigkeit
    00:00 +16°C° 0 mm 5 m/S 736 mmHg 29%
    01:00 +16°C° 0 mm 5 m/S 736 mmHg 30%
    02:00 +15°C° 0 mm 6 m/S 736 mmHg 31%
    03:00 +15°C° 0 mm 6 m/S 735 mmHg 32%
    04:00 +14°C° 0 mm 6 m/S 735 mmHg 32%
    05:00 +13°C° 0 mm 6 m/S 735 mmHg 33%
    06:00 +15°C° 0 mm 6 m/S 736 mmHg 32%
    07:00 +16°C° 0 mm 6 m/S 736 mmHg 32%
    08:00 +17°C° 0 mm 7 m/S 736 mmHg 31%
    09:00 +18°C° 0 mm 7 m/S 737 mmHg 30%
    10:00 +20°C° 0 mm 7 m/S 738 mmHg 30%
    11:00 +21°C° 0 mm 7 m/S 738 mmHg 29%
    12:00 +20°C° 0 mm 7 m/S 739 mmHg 30%
    13:00 +18°C° 0 mm 8 m/S 739 mmHg 30%
    14:00 +17°C° 0 mm 8 m/S 740 mmHg 30%
    15:00 +16°C° 0 mm 8 m/S 740 mmHg 28%
    16:00 +13°C° 0 mm 8 m/S 741 mmHg 26%
    17:00 +12°C° 0 mm 8 m/S 742 mmHg 23%
    18:00 +11°C° 0 mm 6 m/S 742 mmHg 22%
    19:00 +10°C° 0 mm 5 m/S 743 mmHg 21%
    20:00 +10°C° 0 mm 4 m/S 744 mmHg 20%
    21:00 +8°C° 0 mm 4 m/S 745 mmHg 22%
    22:00 +8°C° 0 mm 3 m/S 745 mmHg 24%
    23:00 +8°C° 0 mm 3 m/S 745 mmHg 25%

    27 April, Freitag

    Zeit Temperatur Niederschläge Wind Luftdruck Luftfeuchtigkeit
    00:00 +7°C° 0 mm 2 m/S 746 mmHg 26%
    01:00 +7°C° 0 mm 2 m/S 746 mmHg 27%
    02:00 +6°C° 0 mm 2 m/S 746 mmHg 28%
    03:00 +7°C° 0 mm 1 m/S 746 mmHg 29%
    04:00 +6°C° 0 mm 1 m/S 746 mmHg 29%
    05:00 +6°C° 0 mm 1 m/S 746 mmHg 30%
    06:00 +8°C° 0 mm 1 m/S 746 mmHg 27%
    07:00 +10°C° 0 mm 1 m/S 746 mmHg 23%
    08:00 +12°C° 0 mm 2 m/S 746 mmHg 19%
    09:00 +14°C° 0 mm 2 m/S 746 mmHg 17%
    10:00 +16°C° 0 mm 3 m/S 745 mmHg 15%
    11:00 +18°C° 0 mm 4 m/S 745 mmHg 13%
    12:00 +19°C° 0 mm 4 m/S 744 mmHg 13%
    13:00 +20°C° 0 mm 5 m/S 744 mmHg 12%
    14:00 +21°C° 0 mm 5 m/S 743 mmHg 12%
    15:00 +21°C° 0 mm 5 m/S 742 mmHg 13%
    16:00 +21°C° 0 mm 6 m/S 741 mmHg 14%
    17:00 +21°C° 0 mm 6 m/S 741 mmHg 14%
    18:00 +19°C° 0 mm 6 m/S 741 mmHg 16%
    19:00 +17°C° 0 mm 5 m/S 740 mmHg 18%
    20:00 +16°C° 0 mm 5 m/S 740 mmHg 20%
    21:00 +16°C° 0 mm 6 m/S 740 mmHg 18%
    22:00 +16°C° 0 mm 6 m/S 740 mmHg 17%
    23:00 +15°C° 0 mm 7 m/S 739 mmHg 16%

    28 April, Samstag

    Zeit Temperatur Niederschläge Wind Luftdruck Luftfeuchtigkeit
    00:00 +15°C° 0 mm 7 m/S 739 mmHg 15%
    01:00 +15°C° 0 mm 8 m/S 739 mmHg 14%
    02:00 +15°C° 0 mm 8 m/S 738 mmHg 13%
    03:00 +15°C° 0 mm 8 m/S 738 mmHg 14%
    04:00 +13°C° 0 mm 8 m/S 737 mmHg 15%
    05:00 +13°C° 0 mm 8 m/S 737 mmHg 16%
    06:00 +15°C° 0 mm 9 m/S 737 mmHg 18%
    07:00 +16°C° 0 mm 9 m/S 737 mmHg 19%
    08:00 +17°C° 0 mm 10 m/S 737 mmHg 21%
    09:00 +19°C° 0 mm 10 m/S 736 mmHg 21%
    10:00 +22°C° 0 mm 10 m/S 736 mmHg 20%
    11:00 +24°C° 0 mm 10 m/S 736 mmHg 20%
    12:00 +26°C° 0 mm 10 m/S 735 mmHg 19%
    13:00 +27°C° 0 mm 11 m/S 734 mmHg 18%
    14:00 +28°C° 0 mm 11 m/S 734 mmHg 17%
    15:00 +28°C° 0 mm 11 m/S 733 mmHg 19%
    16:00 +27°C° 0 mm 11 m/S 733 mmHg 20%
    17:00 +27°C° 0 mm 10 m/S 732 mmHg 21%
    18:00 +24°C° 0 mm 10 m/S 732 mmHg 23%
    19:00 +23°C° 0 mm 10 m/S 732 mmHg 24%
    20:00 +21°C° 0 mm 10 m/S 732 mmHg 26%
    21:00 +21°C° 0 mm 11 m/S 732 mmHg 26%
    22:00 +19°C° 0 mm 11 m/S 731 mmHg 27%
    23:00 +18°C° 0 mm 11 m/S 731 mmHg 27%

    29 April, Sonntag

    Zeit Temperatur Niederschläge Wind Luftdruck Luftfeuchtigkeit
    00:00 +18°C° 0 mm 11 m/S 731 mmHg 29%
    01:00 +17°C° 0 mm 10 m/S 731 mmHg 31%
    02:00 +17°C° 0 mm 10 m/S 731 mmHg 32%
    03:00 +16°C° 0 mm 9 m/S 731 mmHg 36%
    04:00 +16°C° 0 mm 9 m/S 731 mmHg 40%
    05:00 +15°C° 0 mm 8 m/S 731 mmHg 43%
    06:00 +16°C° 0 mm 8 m/S 732 mmHg 44%
    07:00 +18°C° 0 mm 8 m/S 732 mmHg 44%
    08:00 +20°C° 0 mm 8 m/S 732 mmHg 44%
    09:00 +21°C° 0 mm 8 m/S 732 mmHg 41%
    10:00 +23°C° 0 mm 7 m/S 732 mmHg 39%
    11:00 +26°C° 0 mm 7 m/S 733 mmHg 37%
    12:00 +26°C° 0 mm 6 m/S 733 mmHg 35%
    13:00 +27°C° 0 mm 6 m/S 733 mmHg 33%
    14:00 +28°C° 0 mm 5 m/S 733 mmHg 30%
    15:00 +26°C° 0 mm 6 m/S 733 mmHg 33%
    16:00 +24°C° 0 mm 6 m/S 733 mmHg 36%
    17:00 +23°C° 0 mm 6 m/S 734 mmHg 39%
    18:00 +21°C° 0,1 mm 5 m/S 734 mmHg 45%
    19:00 +20°C° 0,1 mm 4 m/S 735 mmHg 50%
    20:00 +18°C° 0,1 mm 2 m/S 735 mmHg 55%
    21:00 +18°C° 0 mm 2 m/S 736 mmHg 57%
    22:00 +17°C° 0 mm 2 m/S 736 mmHg 59%
    23:00 +16°C° 0 mm 1 m/S 736 mmHg 60%
    Mehr zeigen